NS3L-13 Weather Reports


time (UTC)temp
F
wind
direction
speed
knots
gust
knots
rain 1hr
in
rain 24hr
in
rain mn
in
humidity
%
barometer
mb
20260506004504 76 191 5.2 10.4 0.00 0.03 0.03 41 1008.7
20260506004004 76 172 6.1 11.3 0.00 0.03 0.03 41 1008.7
20260506002004 76 190 7.0 17.4 0.00 0.03 0.03 40 1008.4
20260506001505 76 176 3.5 13.9 0.00 0.03 0.03 40 1008.3
20260506001004 76 159 6.1 12.2 0.00 0.03 0.03 40 1008.2
20260506000504 76 168 4.3 12.2 0.00 0.03 0.03 40 1008.3
20260506000003 77 183 5.2 11.3 0.00 0.03 0.03 40 1008.3
20260505235504 77 183 7.8 13.9 0.00 0.03 0.03 39 1008.3
20260505235004 77 176 4.3 8.7 0.00 0.03 0.03 40 1008.2
20260505234503 77 164 4.3 10.4 0.00 0.03 0.03 39 1008.1
20260505234003 77 199 7.8 17.4 0.00 0.03 0.03 39 1008.1
20260505233503 77 170 7.8 12.2 0.00 0.03 0.03 38 1008.0
20260505232504 78 147 5.2 10.4 0.00 0.03 0.03 37 1008.1
20260505232004 78 186 6.1 13.0 0.00 0.03 0.03 37 1008.1
20260505231504 78 203 7.0 12.2 0.00 0.03 0.03 37 1008.0
20260505231003 78 194 6.1 18.2 0.00 0.03 0.03 37 1008.0
20260505230509 78 219 7.8 18.2 0.00 0.03 0.03 37 1008.0
20260505230004 78 186 5.2 12.2 0.00 0.03 0.03 37 1007.9
20260505225506 79 205 6.1 18.2 0.00 0.03 0.03 37 1007.9
20260505225004 79 191 8.7 20.9 0.00 0.03 0.03 36 1007.8
20260505224504 79 185 10.4 17.4 0.00 0.03 0.03 36 1007.8
20260505224004 80 216 7.8 19.1 0.00 0.03 0.03 36 1007.8
20260505223504 80 180 4.3 13.9 0.00 0.03 0.03 38 1007.8
20260505223004 79 193 7.8 14.8 0.00 0.03 0.03 37 1007.7
20260505221504 79 203 6.1 17.4 0.00 0.03 0.03 37 1007.5
20260505221004 80 168 7.8 17.4 0.00 0.03 0.03 37 1007.6
20260505220504 80 159 10.4 17.4 0.00 0.03 0.03 37 1007.5
20260505220004 80 182 5.2 15.6 0.00 0.03 0.03 37 1007.5
20260505215504 80 166 5.2 13.9 0.00 0.03 0.03 37 1007.5
20260505215004 80 179 8.7 17.4 0.00 0.03 0.03 37 1007.6
20260505214504 80 205 5.2 17.4 0.00 0.03 0.03 37 1007.6
20260505213504 80 196 7.8 17.4 0.00 0.03 0.03 37 1007.6
20260505213004 80 171 4.3 13.9 0.00 0.03 0.03 38 1007.7
20260505212504 80 167 6.1 15.6 0.00 0.03 0.03 37 1007.5
20260505211504 80 164 7.8 21.7 0.00 0.03 0.03 36 1007.6
20260505210504 80 189 10.4 17.4 0.00 0.03 0.03 36 1007.5
20260505210003 80 173 9.6 17.4 0.00 0.03 0.03 37 1007.4
20260505205503 80 195 8.7 17.4 0.00 0.03 0.03 36 1007.4
20260505205004 80 194 9.6 17.4 0.00 0.03 0.03 35 1007.5
20260505204504 81 183 8.7 17.4 0.00 0.03 0.03 35 1007.4
20260505204004 80 196 6.1 13.0 0.00 0.03 0.03 37 1007.3
20260505203004 81 195 7.8 19.1 0.00 0.03 0.03 35 1007.3
20260505202504 81 202 5.2 15.6 0.00 0.03 0.03 35 1007.5
20260505202004 81 200 10.4 17.4 0.00 0.03 0.03 34 1007.4
20260505201504 81 176 7.8 15.6 0.00 0.03 0.03 35 1007.6
20260505201004 81 199 5.2 13.9 0.00 0.03 0.03 36 1007.5
20260505200504 81 184 7.0 13.9 0.00 0.03 0.03 35 1007.5
20260505195504 81 203 9.6 17.4 0.00 0.03 0.03 36 1007.6
20260505195004 81 178 8.7 17.4 0.00 0.03 0.03 35 1007.6
20260505194504 82 173 5.2 13.0 0.00 0.03 0.03 36 1007.6
20260505194005 81 215 4.3 18.2 0.00 0.03 0.03 37 1007.7
20260505193505 81 167 7.8 17.4 0.00 0.03 0.03 37 1007.6
20260505193004 81 172 10.4 22.6 0.00 0.03 0.03 36 1007.7
20260505192004 81 174 10.4 17.4 0.00 0.03 0.03 36 1007.6
20260505191004 81 175 9.6 19.1 0.00 0.03 0.03 36 1007.7
20260505190506 81 205 6.1 13.9 0.00 0.03 0.03 35 1007.8
20260505190004 81 182 7.8 14.8 0.00 0.03 0.03 35 1007.9
20260505185504 81 184 8.7 15.6 0.00 0.03 0.03 36 1007.9
20260505185004 81 193 5.2 13.9 0.00 0.03 0.03 37 1008.0
20260505184504 82 228 7.8 15.6 0.00 0.03 0.03 36 1008.1
20260505184005 82 218 6.1 13.9 0.00 0.03 0.03 37 1008.1
20260505183504 82 209 7.8 14.8 0.00 0.03 0.03 35 1008.3
20260505183004 82 224 7.8 13.0 0.00 0.03 0.03 33 1008.3
20260505182504 82 190 7.0 13.9 0.00 0.03 0.03 34 1008.4
20260505181504 82 209 6.1 20.9 0.00 0.03 0.03 33 1008.2
20260505181004 81 252 5.2 17.4 0.00 0.03 0.03 35 1008.5
20260505180005 81 191 4.3 14.8 0.00 0.03 0.03 35 1008.7
20260505175504 81 201 7.0 20.9 0.00 0.03 0.03 36 1008.9
20260505175004 81 226 10.4 22.6 0.00 0.03 0.03 35 1008.9
20260505174504 81 214 7.8 14.8 0.00 0.03 0.03 37 1008.8
20260505173505 81 209 6.1 13.0 0.00 0.03 0.03 39 1008.9
20260505173004 81 223 8.7 15.6 0.00 0.03 0.03 38 1009.0
20260505172504 80 171 8.7 20.0 0.00 0.03 0.03 39 1009.0
20260505172004 80 204 8.7 17.4 0.00 0.03 0.03 40 1008.9
20260505171004 80 188 6.1 12.2 0.00 0.03 0.03 41 1009.1
20260505170504 79 215 6.1 12.2 0.00 0.03 0.03 42 1009.2
20260505170004 79 249 5.2 13.0 0.00 0.03 0.03 42 1009.2
20260505165504 79 227 5.2 12.2 0.00 0.03 0.03 42 1009.4
20260505165004 79 244 8.7 14.8 0.00 0.03 0.03 42 1009.5
20260505164504 79 244 6.1 13.9 0.00 0.03 0.03 42 1009.5
20260505163004 78 250 6.1 10.4 0.00 0.03 0.03 44 1009.8
20260505162504 78 241 4.3 12.2 0.00 0.03 0.03 44 1009.9
20260505162004 78 230 6.1 15.6 0.00 0.03 0.03 45 1009.9
20260505161504 78 211 8.7 14.8 0.00 0.03 0.03 43 1009.9
20260505161004 78 230 7.0 15.6 0.00 0.03 0.03 44 1010.0
20260505160504 78 238 4.3 10.4 0.00 0.03 0.03 45 1010.0
20260505153004 76 188 7.0 11.3 0.00 0.03 0.03 47 1010.3
20260505152504 76 219 2.6 7.8 0.00 0.03 0.03 48 1010.3
20260505151504 74 248 5.2 11.3 0.00 0.03 0.03 50 1010.5
20260505151004 74 227 4.3 10.4 0.00 0.03 0.03 50 1010.5
20260505150504 74 230 4.3 8.7 0.00 0.03 0.03 49 1010.5
20260505140505 69 294 6.1 10.4 0.00 0.03 0.03 57 1011.1
20260505125004 63 254 1.7 5.2 0.00 0.03 0.03 74 1011.4
20260505124504 62 205 2.6 5.2 0.00 0.03 0.03 74 1011.4
20260505124004 62 178 2.6 6.1 0.00 0.03 0.03 74 1011.4
20260505123504 62 165 3.5 7.0 0.00 0.03 0.03 74 1011.2
20260505123004 61 150 2.6 6.1 0.00 0.03 0.03 75 1011.2
20260505122004 61 170 2.6 4.3 0.00 0.03 0.03 75 1011.3
20260505121504 60 166 3.5 7.0 0.00 0.03 0.03 76 1011.3
20260505121004 60 167 2.6 7.8 0.00 0.03 0.03 79 1011.4
20260505120004 60 177 0.9 2.6 0.00 0.03 0.03 79 1011.3
20260505115507 59 210 2.6 5.2 0.00 0.03 0.03 81 1011.3
20260505115004 59 152 1.7 5.2 0.00 0.03 0.03 83 1011.1
20260505114503 58 189 2.6 5.2 0.00 0.03 0.03 85 1011.2
20260505114003 57 157 2.6 5.2 0.00 0.03 0.03 88 1010.9
20260505113504 56 162 0.9 2.6 0.00 0.03 0.03 90 1011.0
20260505113004 56 159 0.9 2.6 0.00 0.03 0.03 91 1011.0
20260505112504 55 159 0.9 2.6 0.00 0.03 0.03 91 1011.0
20260505112004 54 158 1.7 2.6 0.00 0.03 0.03 91 1011.0
20260505111504 54 211 0.0 0.9 0.00 0.03 0.03 91 1011.1
20260505110504 53 211 0.9 0.9 0.00 0.03 0.03 91 1011.1
20260505101504 54 155 0.0 0.9 0.00 0.03 0.03 87 1010.6
20260505101004 54 155 0.9 1.7 0.00 0.03 0.03 87 1010.6
20260505100504 54 155 1.7 2.6 0.01 0.03 0.03 87 1010.5
20260505095504 54 155 1.7 2.6 0.01 0.03 0.03 87 1010.4
20260505095004 54 159 1.7 5.2 0.02 0.03 0.03 87 1010.4
20260505094504 54 172 2.6 4.3 0.03 0.03 0.03 87 1010.5
20260505093504 54 147 3.5 7.8 0.03 0.03 0.03 88 1010.4
20260505093004 54 152 2.6 2.6 0.03 0.03 0.03 88 1010.6
20260505092503 54 148 0.0 2.6 0.03 0.03 0.03 87 1010.6
20260505092004 54 148 0.9 2.6 0.03 0.03 0.03 87 1010.6
20260505091504 54 152 2.6 6.1 0.03 0.03 0.03 86 1010.8
20260505091004 54 313 0.9 2.6 0.03 0.03 0.03 85 1010.8
20260505090505 54 313 0.9 1.7 0.02 0.02 0.02 84 1010.8
20260505090004 54 313 1.7 2.6 0.02 0.02 0.02 82 1010.7
20260505085504 54 314 0.9 2.6 0.02 0.02 0.02 81 1010.8
20260505085005 54 314 1.7 4.3 0.01 0.01 0.01 78 1010.9
20260505084504 55 307 2.6 6.1 0.00 0.00 0.00 75 1011.2
20260505084005 55 276 2.6 2.6 0.00 0.00 0.00 73 1011.0
20260505083505 56 244 2.6 2.6 0.00 0.00 0.00 72 1010.9
20260505083004 56 224 1.7 2.6 0.00 0.00 0.00 71 1010.8
20260505082004 56 187 0.9 1.7 0.00 0.00 0.00 70 1010.4
20260505081504 56 187 0.9 1.7 0.00 0.00 0.00 69 1010.5
20260505081004 56 187 0.9 1.7 0.00 0.00 0.00 69 1010.3
20260505080004 56 187 0.0 0.9 0.00 0.00 0.00 69 1010.2
20260505075504 56 187 0.0 1.7 0.00 0.00 0.00 68 1010.3
20260505075005 56 187 0.0 0.9 0.00 0.00 0.00 68 1010.2
20260505074504 56 187 0.0 0.9 0.00 0.00 0.00 67 1010.2
20260505074004 57 187 0.0 0.0 0.00 0.00 0.00 66 1010.2
20260505073505 57 187 0.0 0.9 0.00 0.00 0.00 66 1010.2
20260505073004 57 187 0.9 0.9 0.00 0.00 0.00 67 1010.3
20260505072504 57 187 0.0 0.9 0.00 0.00 0.00 66 1010.3
20260505071504 58 187 0.0 0.0 0.00 0.00 0.00 64 1010.2
20260505071004 58 187 0.0 0.0 0.00 0.00 0.00 64 1010.3
20260505065504 59 187 0.0 0.0 0.00 0.00 0.00 61 1010.2
20260505065004 59 187 0.0 0.0 0.00 0.00 0.00 60 1010.3
20260505064504 60 187 0.0 0.0 0.00 0.00 0.00 60 1010.2
20260505064004 60 187 0.0 0.9 0.00 0.00 0.00 60 1010.3
20260505063504 60 187 0.9 1.7 0.00 0.00 0.00 59 1010.4
20260505063004 60 187 0.9 0.9 0.00 0.00 0.00 59 1010.4
20260505062504 60 187 0.0 0.9 0.00 0.00 0.00 59 1010.4
20260505062004 60 187 0.0 1.7 0.00 0.00 0.00 59 1010.4
20260505061504 60 187 1.7 2.6 0.00 0.00 0.00 58 1010.4
20260505061004 60 187 0.9 1.7 0.00 0.00 0.00 58 1010.4
20260505060505 60 187 0.9 2.6 0.00 0.00 0.00 58 1010.4
20260505060004 60 187 0.9 1.7 0.00 0.00 0.00 57 1010.4
20260505054504 60 187 0.0 1.7 0.00 0.00 0.00 56 1010.4
20260505054004 61 187 0.0 0.9 0.00 0.00 0.00 56 1010.4
20260505053505 61 187 0.0 0.9 0.00 0.00 0.00 56 1010.4
20260505053004 61 187 0.0 0.0 0.00 0.00 0.00 55 1010.4
20260505052504 61 187 0.0 0.9 0.00 0.00 0.00 54 1010.4
20260505052004 61 187 0.9 1.7 0.00 0.00 0.00 54 1010.3
20260505051004 62 174 1.7 5.2 0.00 0.00 0.00 54 1010.4
20260505041504 61 165 0.0 0.9 0.00 0.00 0.00 53 1010.4
20260505040505 61 165 0.0 0.9 0.00 0.00 0.00 52 1010.2
20260505035504 62 165 0.0 0.9 0.00 0.00 0.00 51 1010.1
20260505035004 62 165 0.0 0.9 0.00 0.00 0.00 51 1010.1
20260505034504 62 165 0.0 1.7 0.00 0.00 0.00 51 1010.1
20260505034004 62 165 0.9 1.7 0.00 0.00 0.00 51 1010.2
20260505033504 62 165 0.9 2.6 0.00 0.00 0.00 51 1010.1
20260505032504 62 165 2.6 4.3 0.00 0.00 0.00 51 1010.2
20260505032004 63 164 1.7 4.3 0.00 0.00 0.00 50 1010.2
20260505031504 63 162 1.7 4.3 0.00 0.00 0.00 50 1010.2
20260505031004 63 162 0.9 4.3 0.00 0.00 0.00 50 1010.2
20260505030504 63 149 2.6 4.3 0.00 0.00 0.00 50 1010.3
20260505030004 63 161 4.3 5.2 0.00 0.00 0.00 49 1010.3
20260505025504 63 164 1.7 4.3 0.00 0.00 0.00 49 1010.4
20260505025004 63 179 1.7 2.6 0.00 0.00 0.00 49 1010.4
20260505024504 64 144 1.7 4.3 0.00 0.00 0.00 48 1010.4
20260505024004 64 173 1.7 4.3 0.00 0.00 0.00 48 1010.4
20260505023504 64 173 1.7 4.3 0.00 0.00 0.00 48 1010.4
20260505023004 64 188 1.7 2.6 0.00 0.00 0.00 47 1010.4
20260505022504 64 188 0.9 1.7 0.00 0.00 0.00 47 1010.4
20260505022004 64 188 0.9 5.2 0.00 0.00 0.00 47 1010.5
20260505021504 65 160 0.9 4.3 0.00 0.00 0.00 47 1010.6
20260505021004 65 163 1.7 6.1 0.00 0.00 0.00 46 1010.5
20260505020504 65 192 1.7 4.3 0.00 0.00 0.00 46 1010.6
20260505020004 65 167 2.6 6.1 0.00 0.00 0.00 46 1010.6
20260505015504 65 178 2.6 5.2 0.00 0.00 0.00 46 1010.5
20260505015004 64 169 2.6 6.1 0.00 0.00 0.00 46 1010.6
20260505014505 64 189 1.7 4.3 0.00 0.00 0.00 47 1010.5
20260505014004 64 192 1.7 5.2 0.00 0.00 0.00 46 1010.5
20260505013505 64 168 0.9 4.3 0.00 0.00 0.00 46 1010.4
20260505013005 65 168 0.9 1.7 0.00 0.00 0.00 46 1010.3
20260505012504 65 169 0.9 4.3 0.00 0.00 0.00 45 1010.2
20260505012004 65 168 1.7 4.3 0.00 0.00 0.00 45 1010.2
20260505011503 65 157 0.9 6.1 0.00 0.00 0.00 45 1010.2
20260505011004 66 175 1.7 2.6 0.00 0.00 0.00 44 1010.1
20260505005504 66 161 2.6 5.2 0.00 0.00 0.00 44 1010.1
20260505005004 66 162 1.7 4.3 0.00 0.00 0.00 43 1010.0